Temp: 13.8°C   Baro: 1008.4mb
  Wind: 9.0mph   Dir: WSW (238°)
  Rain: 6.4mm (0.0mm/hr)
  Sun: 269W/m2  Humidity: 92%

Historic data

Bath Spa Weather Station Historical Data
Daily Summary for April 11, 2024 Units:  Metric    English   Both
Daily Weekly Monthly Yearly Custom
  High: Low: Average:
Temperature: 17.3 °C 10.9 °C 13.4 °C
Dew Point: 13.6 °C 9.5 °C 11.5 °C
Humidity: 95% 78.2% 89%
Wind Speed: 14.8km/h 0km/h 7.1km/h
Wind Gust: 24.1km/h - -
Wind- - SW
Pressure: 1030.7 hPa 1025.6 hPa -
Precipitation: 0.25 mm    
Historical Graphs
 
 
Tabular Data for April 11, 2024
Time Temperature Dew Point Pressure Wind Wind Speed Wind Gust Humidity Rainfall Rate (Hourly) solar
00:09 11.8 °C 10.5 °C 1025.6 hPa SW 11.3 km/h 17.7 km/h 92% 0 mm 0 W/m2
00:14 11.8 °C 10.5 °C 1026 hPa WSW 8.7 km/h 17.7 km/h 92% 0 mm 0 W/m2
00:19 11.8 °C 10.5 °C 1026 hPa WSW 8 km/h 16.1 km/h 92% 0 mm 0 W/m2
00:24 11.8 °C 10.5 °C 1026 hPa SW 8 km/h 16.1 km/h 92% 0 mm 0 W/m2
00:29 11.8 °C 10.5 °C 1026 hPa SW 8.5 km/h 19.3 km/h 92% 0 mm 0 W/m2
00:34 11.8 °C 10.5 °C 1026 hPa SW 12.4 km/h 19.3 km/h 92% 0 mm 0 W/m2
00:39 11.8 °C 10.5 °C 1026 hPa SW 8.5 km/h 19.3 km/h 92% 0 mm 0 W/m2
00:44 11.8 °C 10.5 °C 1026 hPa SW 10 km/h 17.7 km/h 92% 0 mm 0 W/m2
00:49 11.8 °C 10.6 °C 1026 hPa SW 11.3 km/h 16.1 km/h 92% 0 mm 0 W/m2
00:54 11.9 °C 10.6 °C 1026 hPa SW 10.1 km/h 16.1 km/h 92% 0 mm 0 W/m2
00:59 11.9 °C 10.6 °C 1026 hPa SSW 8.2 km/h 16.1 km/h 92% 0 mm 0 W/m2
01:04 11.9 °C 10.6 °C 1026 hPa SW 6.6 km/h 17.7 km/h 92% 0 mm 0 W/m2
01:09 11.9 °C 10.6 °C 1026 hPa SW 7.6 km/h 12.9 km/h 92% 0 mm 0 W/m2
01:14 11.9 °C 10.6 °C 1026 hPa SW 6.6 km/h 12.9 km/h 92% 0 mm 0 W/m2
01:19 11.9 °C 10.6 °C 1026 hPa SSW 5.8 km/h 12.9 km/h 92% 0 mm 0 W/m2
01:24 11.9 °C 10.6 °C 1026 hPa SW 8.4 km/h 16.1 km/h 92% 0 mm 0 W/m2
01:29 11.9 °C 10.6 °C 1026 hPa SSW 5.1 km/h 14.5 km/h 92% 0 mm 0 W/m2
01:34 11.9 °C 10.6 °C 1026 hPa SW 9.8 km/h 14.5 km/h 92% 0 mm 0 W/m2
01:39 11.9 °C 10.6 °C 1026 hPa SW 9.7 km/h 17.7 km/h 92% 0 mm 0 W/m2
01:44 11.9 °C 10.6 °C 1026 hPa SW 12.4 km/h 17.7 km/h 92% 0 mm 0 W/m2
01:49 11.9 °C 10.6 °C 1026 hPa SW 8.5 km/h 17.7 km/h 92% 0 mm 0 W/m2
01:54 11.9 °C 10.6 °C 1026 hPa SW 9.8 km/h 17.7 km/h 92% 0 mm 0 W/m2
01:59 11.8 °C 10.6 °C 1026 hPa SW 10.9 km/h 17.7 km/h 92% 0 mm 0 W/m2
02:04 11.8 °C 10.5 °C 1026 hPa SW 9.7 km/h 17.7 km/h 92% 0 mm 0 W/m2
02:09 11.8 °C 10.5 °C 1025.6 hPa SSW 11.9 km/h 20.9 km/h 92% 0 mm 0 W/m2
02:14 11.8 °C 10.4 °C 1025.6 hPa SW 7.1 km/h 16.1 km/h 92% 0 mm 0 W/m2
02:19 11.7 °C 10.4 °C 1026 hPa SSW 8.2 km/h 16.1 km/h 92% 0 mm 0 W/m2
02:24 11.7 °C 10.4 °C 1026 hPa SW 10.9 km/h 17.7 km/h 92% 0 mm 0 W/m2
02:29 11.7 °C 10.4 °C 1026 hPa SSW 6.6 km/h 17.7 km/h 92% 0 mm 0 W/m2
02:34 11.7 °C 10.4 °C 1026.3 hPa SSW 7.7 km/h 16.1 km/h 92% 0 mm 0 W/m2
02:39 11.7 °C 10.4 °C 1026 hPa SSW 7.6 km/h 16.1 km/h 92% 0 mm 0 W/m2
02:44 11.6 °C 10.3 °C 1026 hPa SSW 6 km/h 16.1 km/h 92% 0 mm 0 W/m2
02:49 11.6 °C 10.3 °C 1026 hPa SSW 10.3 km/h 16.1 km/h 92% 0 mm 0 W/m2
02:54 11.6 °C 10.3 °C 1026 hPa SW 6.6 km/h 14.5 km/h 92% 0 mm 0 W/m2
02:59 11.6 °C 10.3 °C 1026 hPa SW 8.2 km/h 12.9 km/h 92% 0 mm 0 W/m2
03:04 11.6 °C 10.3 °C 1026 hPa WSW 7.6 km/h 14.5 km/h 92% 0 mm 0 W/m2
03:09 11.6 °C 10.3 °C 1026 hPa WSW 5.3 km/h 14.5 km/h 92% 0 mm 0 W/m2
03:14 11.6 °C 10.3 °C 1026 hPa WSW 5.1 km/h 9.7 km/h 92% 0 mm 0 W/m2
03:19 11.6 °C 10.3 °C 1026.3 hPa SW 5.8 km/h 12.9 km/h 92% 0 mm 0 W/m2
03:24 11.6 °C 10.3 °C 1026.3 hPa WSW 7.4 km/h 12.9 km/h 92% 0 mm 0 W/m2
03:29 11.6 °C 10.3 °C 1026.3 hPa WSW 6.1 km/h 12.9 km/h 92% 0 mm 0 W/m2
03:34 11.6 °C 10.3 °C 1026.3 hPa WSW 7.1 km/h 16.1 km/h 92% 0 mm 0 W/m2
03:39 11.6 °C 10.3 °C 1026.3 hPa WSW 5.8 km/h 9.7 km/h 92% 0 mm 0 W/m2
03:44 11.6 °C 10.3 °C 1026.6 hPa WSW 6.3 km/h 11.3 km/h 92% 0 mm 0 W/m2
03:49 11.6 °C 10.3 °C 1026.6 hPa WSW 7.1 km/h 11.3 km/h 92% 0 mm 0 W/m2
03:54 11.6 °C 10.3 °C 1026.6 hPa SW 8.5 km/h 11.3 km/h 92% 0 mm 0 W/m2
03:59 11.6 °C 10.3 °C 1026.3 hPa SW 7.4 km/h 14.5 km/h 92% 0 mm 0 W/m2
04:04 11.6 °C 10.3 °C 1026.6 hPa SW 5.1 km/h 11.3 km/h 92% 0 mm 0 W/m2
04:09 11.7 °C 10.4 °C 1026.6 hPa WSW 6 km/h 12.9 km/h 92% 0 mm 0 W/m2
04:14 11.7 °C 10.4 °C 1026.6 hPa West 3.4 km/h 9.7 km/h 92% 0 mm 0 W/m2
04:19 11.7 °C 10.4 °C 1026.6 hPa West 2.6 km/h 4.8 km/h 92% 0 mm 0 W/m2
04:24 11.7 °C 10.4 °C 1026.6 hPa West 3.9 km/h 8 km/h 92% 0 mm 0 W/m2
04:29 11.7 °C 10.4 °C 1026.6 hPa WSW 4 km/h 8 km/h 92% 0 mm 0 W/m2
04:34 11.7 °C 10.4 °C 1026.6 hPa West 5.6 km/h 9.7 km/h 92% 0 mm 0 W/m2
04:39 11.7 °C 10.4 °C 1026.6 hPa WSW 6.4 km/h 11.3 km/h 92% 0 mm 0 W/m2
04:44 11.6 °C 10.3 °C 1026.6 hPa WSW 6.4 km/h 12.9 km/h 92% 0 mm 0 W/m2
04:48 11.6 °C 10.3 °C 1026.6 hPa WSW 5.6 km/h 11.3 km/h 92% 0 mm 0 W/m2
04:54 11.6 °C 10.3 °C 1026.6 hPa WSW 6.6 km/h 9.7 km/h 92% 0 mm 0 W/m2
04:59 11.6 °C 10.4 °C 1026.6 hPa WSW 3.4 km/h 9.7 km/h 92.4% 0 mm 0 W/m2
05:04 11.6 °C 10.5 °C 1027 hPa West 2.6 km/h 6.4 km/h 93% 0 mm 0 W/m2
05:09 11.6 °C 10.5 °C 1027 hPa West 2.6 km/h 6.4 km/h 93% 0 mm 0 W/m2
05:14 11.6 °C 10.5 °C 1027 hPa West 1.9 km/h 4.8 km/h 93% 0 mm 0 W/m2
05:19 11.6 °C 10.5 °C 1027.3 hPa West 3.4 km/h 6.4 km/h 93% 0 mm 0 W/m2
05:24 11.5 °C 10.4 °C 1027.3 hPa West 3.5 km/h 6.4 km/h 93% 0 mm 0 W/m2
05:29 11.5 °C 10.4 °C 1027.3 hPa West 4.7 km/h 8 km/h 93% 0 mm 0 W/m2
05:34 11.4 °C 10.3 °C 1027 hPa West 5.6 km/h 8 km/h 93% 0 mm 0 W/m2
05:39 11.4 °C 10.3 °C 1027.3 hPa SW 5.3 km/h 9.7 km/h 93% 0 mm 0 W/m2
05:44 11.4 °C 10.3 °C 1027.3 hPa SW 4.7 km/h 9.7 km/h 93% 0 mm 0 W/m2
05:49 11.4 °C 10.3 °C 1027.3 hPa SW 1.1 km/h 4.8 km/h 93% 0 mm 0 W/m2
05:54 11.4 °C 10.3 °C 1027.3 hPa Calm   3.2 km/h 93% 0 mm 0 W/m2
05:59 11.4 °C 10.3 °C 1027.3 hPa SW 1.3 km/h 4.8 km/h 93% 0 mm 0 W/m2
06:04 11.4 °C 10.3 °C 1027.3 hPa SW 4.7 km/h 8 km/h 93% 0 mm 0 W/m2
06:09 11.4 °C 10.3 °C 1027.3 hPa WSW 5 km/h 8 km/h 93% 0 mm 0 W/m2
06:14 11.4 °C 10.3 °C 1027.3 hPa WSW 5.1 km/h 9.7 km/h 93% 0 mm 0 W/m2
06:19 11.3 °C 10.3 °C 1027.3 hPa WSW 4.3 km/h 8 km/h 93% 0 mm 0 W/m2
06:24 11.4 °C 10.3 °C 1027.3 hPa WSW 5.1 km/h 8 km/h 93.4% 0 mm 0 W/m2
06:29 11.3 °C 10.4 °C 1027.3 hPa WSW 3.9 km/h 9.7 km/h 94% 0 mm 0 W/m2
06:34 11.3 °C 10.4 °C 1027.7 hPa WSW 2.1 km/h 6.4 km/h 94% 0 mm 5 W/m2
06:39 11.3 °C 10.4 °C 1027.7 hPa WSW 0.8 km/h 4.8 km/h 94% 0 mm 7 W/m2
06:44 11.3 °C 10.4 °C 1028 hPa WSW 0.8 km/h 3.2 km/h 94% 0 mm 9 W/m2
06:49 11.4 °C 10.5 °C 1028 hPa WSW 4.2 km/h 6.4 km/h 94% 0 mm 12 W/m2
06:54 11.4 °C 10.5 °C 1028 hPa West 6.4 km/h 9.7 km/h 94% 0 mm 12 W/m2
06:59 11.4 °C 10.5 °C 1028 hPa West 2.9 km/h 8 km/h 94% 0 mm 18 W/m2
07:04 11.4 °C 10.5 °C 1028 hPa West 4 km/h 8 km/h 94% 0 mm 14 W/m2
07:09 11.4 °C 10.5 °C 1028 hPa WSW 2.9 km/h 8 km/h 94% 0 mm 18 W/m2
07:14 11.4 °C 10.5 °C 1028 hPa WSW 3.9 km/h 4.8 km/h 94% 0 mm 23 W/m2
07:19 11.4 °C 10.5 °C 1028.3 hPa WSW 5 km/h 8 km/h 94% 0 mm 39 W/m2
07:24 11.4 °C 10.5 °C 1028.3 hPa WSW 5.8 km/h 8 km/h 94% 0 mm 46 W/m2
07:29 11.4 °C 10.6 °C 1028.3 hPa West 5.6 km/h 11.3 km/h 94% 0 mm 65 W/m2
07:34 11.5 °C 10.6 °C 1028.3 hPa West 4 km/h 6.4 km/h 94% 0 mm 97 W/m2
07:39 11.6 °C 10.7 °C 1028.3 hPa WSW 4.8 km/h 8 km/h 94% 0 mm 97 W/m2
07:44 11.6 °C 10.7 °C 1028.3 hPa WSW 3.9 km/h 6.4 km/h 94% 0 mm 113 W/m2
07:49 11.6 °C 10.7 °C 1028.3 hPa WSW 2.4 km/h 6.4 km/h 94% 0 mm 125 W/m2
07:54 11.7 °C 10.8 °C 1028.3 hPa Calm   3.2 km/h 94% 0 mm 72 W/m2
07:59 11.7 °C 10.8 °C 1028.3 hPa WSW 1 km/h 3.2 km/h 94% 0 mm 58 W/m2
08:04 11.7 °C 10.8 °C 1028.3 hPa WSW 1.8 km/h 4.8 km/h 94% 0 mm 51 W/m2
08:09 11.7 °C 10.8 °C 1028.3 hPa WSW 1.8 km/h 4.8 km/h 94% 0 mm 46 W/m2
08:14 11.7 °C 10.8 °C 1028.7 hPa WSW 0.6 km/h 3.2 km/h 94% 0 mm 46 W/m2
08:19 11.7 °C 10.8 °C 1028.7 hPa WSW 3.2 km/h 6.4 km/h 94% 0.25 mm 65 W/m2
08:24 11.7 °C 10.8 °C 1028.7 hPa WSW 3.2 km/h 6.4 km/h 94% 0.25 mm 72 W/m2
08:29 11.7 °C 10.8 °C 1029 hPa WSW 4.5 km/h 9.7 km/h 94% 0.25 mm 83 W/m2
08:34 11.7 °C 10.8 °C 1029 hPa WSW 3.4 km/h 9.7 km/h 94% 0.25 mm 107 W/m2
08:39 11.8 °C 10.8 °C 1029 hPa West 6 km/h 9.7 km/h 94% 0.25 mm 105 W/m2
08:44 11.8 °C 10.9 °C 1029 hPa West 6.1 km/h 8 km/h 94% 0.25 mm 123 W/m2
08:49 11.9 °C 11 °C 1029 hPa West 5.6 km/h 9.7 km/h 94% 0.25 mm 163 W/m2
08:54 11.9 °C 11 °C 1029 hPa WSW 6.6 km/h 9.7 km/h 94% 0.25 mm 156 W/m2
08:59 11.9 °C 11.1 °C 1029 hPa SW 6.3 km/h 11.3 km/h 94% 0.25 mm 181 W/m2
09:04 12 °C 11.1 °C 1029 hPa West 6.1 km/h 12.9 km/h 94% 0.25 mm 190 W/m2
09:09 12 °C 11.1 °C 1029 hPa WSW 7.1 km/h 12.9 km/h 94% 0.25 mm 213 W/m2
09:14 12 °C 11.1 °C 1029 hPa SW 5.6 km/h 9.7 km/h 94% 0.25 mm 186 W/m2
09:19 12.1 °C 11.2 °C 1029.3 hPa SW 4.5 km/h 9.7 km/h 94.4% 0.25 mm 160 W/m2
09:24 12.1 °C 11.3 °C 1029.3 hPa WSW 4.5 km/h 6.4 km/h 95% 0 mm 141 W/m2
09:29 12.1 °C 11.3 °C 1029.3 hPa WSW 5.1 km/h 9.7 km/h 94.6% 0 mm 179 W/m2
09:34 12.1 °C 11.3 °C 1029.3 hPa SW 6.8 km/h 11.3 km/h 95% 0 mm 220 W/m2
09:39 12.2 °C 11.3 °C 1029.3 hPa WSW 3.7 km/h 9.7 km/h 95% 0 mm 213 W/m2
09:44 12.3 °C 11.5 °C 1029.7 hPa WSW 5 km/h 9.7 km/h 95% 0 mm 241 W/m2
09:49 12.3 °C 11.5 °C 1029.3 hPa WSW 3.7 km/h 8 km/h 95% 0 mm 151 W/m2
09:54 12.3 °C 11.5 °C 1029.3 hPa SSW 4.5 km/h 9.7 km/h 95% 0 mm 185 W/m2
09:59 12.3 °C 11.5 °C 1029.7 hPa SW 4.7 km/h 11.3 km/h 95% 0 mm 139 W/m2
10:04 12.4 °C 11.6 °C 1030 hPa SSW 6 km/h 11.3 km/h 95% 0 mm 200 W/m2
10:09 12.5 °C 11.7 °C 1030 hPa SW 4.2 km/h 9.7 km/h 95% 0 mm 169 W/m2
10:14 12.6 °C 11.8 °C 1030 hPa WSW 5.1 km/h 8 km/h 95% 0 mm 121 W/m2
10:19 12.6 °C 11.8 °C 1030.4 hPa SW 5.5 km/h 9.7 km/h 95% 0 mm 125 W/m2
10:24 12.7 °C 11.8 °C 1030.4 hPa SW 5.3 km/h 11.3 km/h 94% 0 mm 258 W/m2
10:29 12.8 °C 11.9 °C 1030.4 hPa WSW 6 km/h 11.3 km/h 94% 0 mm 260 W/m2
10:34 12.9 °C 12 °C 1030.4 hPa West 8.9 km/h 12.9 km/h 94% 0 mm 239 W/m2
10:39 12.8 °C 11.9 °C 1030 hPa West 8.4 km/h 12.9 km/h 94% 0 mm 211 W/m2
10:44 12.9 °C 12 °C 1030 hPa WSW 7.7 km/h 12.9 km/h 94% 0 mm 243 W/m2
10:49 13 °C 12.1 °C 1030.4 hPa WSW 9 km/h 12.9 km/h 94% 0 mm 497 W/m2
10:54 13.2 °C 12.3 °C 1030 hPa WNW 7.4 km/h 12.9 km/h 94% 0 mm 534 W/m2
10:59 13.3 °C 12.4 °C 1030.4 hPa WSW 9 km/h 14.5 km/h 94% 0 mm 508 W/m2
11:04 13.3 °C 12.4 °C 1030.4 hPa West 11.9 km/h 16.1 km/h 94% 0 mm 369 W/m2
11:09 13.3 °C 12.4 °C 1030.4 hPa West 7.4 km/h 12.9 km/h 94% 0 mm 385 W/m2
11:14 13.6 °C 12.5 °C 1030.4 hPa West 7.7 km/h 12.9 km/h 93.4% 0 mm 452 W/m2
11:19 13.5 °C 12.4 °C 1030 hPa West 9.8 km/h 16.1 km/h 93% 0 mm 439 W/m2
11:24 13.7 °C 12.6 °C 1030.4 hPa West 9.3 km/h 17.7 km/h 93% 0 mm 390 W/m2
11:29 13.8 °C 12.7 °C 1030.4 hPa West 7.2 km/h 17.7 km/h 93% 0 mm 315 W/m2
11:34 13.9 °C 12.8 °C 1030.4 hPa WSW 9.7 km/h 14.5 km/h 93% 0 mm 315 W/m2
11:39 13.9 °C 12.7 °C 1030.4 hPa WSW 9 km/h 14.5 km/h 92.8% 0 mm 267 W/m2
11:44 14.1 °C 12.7 °C 1030.4 hPa WSW 5.6 km/h 14.5 km/h 92% 0 mm 417 W/m2
11:49 14.3 °C 13 °C 1030.4 hPa SW 9 km/h 14.5 km/h 92% 0 mm 450 W/m2
11:54 14.6 °C 13.1 °C 1030 hPa WSW 8 km/h 12.9 km/h 91.4% 0 mm 475 W/m2
11:59 14.7 °C 13.2 °C 1030 hPa West 8 km/h 12.9 km/h 90.8% 0 mm 399 W/m2
12:04 14.8 °C 13.2 °C 1030 hPa WSW 8.2 km/h 16.1 km/h 90.2% 0 mm 494 W/m2
12:09 14.9 °C 13.2 °C 1030 hPa WSW 8 km/h 16.1 km/h 89.4% 0 mm 461 W/m2
12:14 15 °C 13.2 °C 1030 hPa West 7.9 km/h 16.1 km/h 88.8% 0 mm 404 W/m2
12:19 15.2 °C 13.2 °C 1030.4 hPa WSW 8.9 km/h 16.1 km/h 88% 0 mm 531 W/m2
12:24 15.3 °C 13.2 °C 1030 hPa WSW 10.8 km/h 17.7 km/h 87.2% 0 mm 629 W/m2
12:29 15.5 °C 13.2 °C 1030 hPa WSW 12.2 km/h 17.7 km/h 86% 0 mm 675 W/m2
12:34 15.8 °C 13.2 °C 1030.4 hPa SW 10.3 km/h 17.7 km/h 84.6% 0 mm 619 W/m2
12:39 15.9 °C 13.1 °C 1030.4 hPa SW 9.7 km/h 16.1 km/h 83% 0 mm 396 W/m2
12:44 16.1 °C 13.1 °C 1030.4 hPa SW 9.3 km/h 14.5 km/h 82.4% 0 mm 403 W/m2
12:49 16.1 °C 12.8 °C 1030.4 hPa SW 8.7 km/h 12.9 km/h 81.4% 0 mm 360 W/m2
12:54 16.2 °C 12.8 °C 1030.4 hPa WSW 8.4 km/h 12.9 km/h 81% 0 mm 360 W/m2
12:59 16.1 °C 12.8 °C 1030.4 hPa WSW 8.5 km/h 16.1 km/h 81% 0 mm 325 W/m2
13:04 16 °C 12.8 °C 1030.4 hPa WNW 6.1 km/h 14.5 km/h 81.8% 0 mm 336 W/m2
13:09 16 °C 12.8 °C 1030.7 hPa WSW 8.7 km/h 12.9 km/h 81.8% 0 mm 304 W/m2
13:14 16.1 °C 12.8 °C 1030.4 hPa WSW 8.4 km/h 20.9 km/h 81% 0 mm 468 W/m2
13:19 16.2 °C 12.8 °C 1030.4 hPa SW 10.9 km/h 20.9 km/h 80.2% 0 mm 657 W/m2
13:24 16.3 °C 12.7 °C 1030.4 hPa SSW 7.9 km/h 14.5 km/h 79% 0 mm 657 W/m2
13:28 16.3 °C 12.7 °C 1030.4 hPa SSW 7.2 km/h 14.5 km/h 79% 0 mm 420 W/m2
13:34 16.4 °C 12.7 °C 1030.4 hPa WSW 6.3 km/h 14.5 km/h 79% 0 mm 336 W/m2
13:39 16.4 °C 12.7 °C 1030.4 hPa SW 9.2 km/h 17.7 km/h 78.8% 0 mm 385 W/m2
13:44 16.4 °C 12.6 °C 1030.4 hPa SW 10.1 km/h 19.3 km/h 78.2% 0 mm 373 W/m2
13:49 16.4 °C 12.7 °C 1030.4 hPa SW 11.9 km/h 19.3 km/h 79% 0 mm 313 W/m2
13:54 16.4 °C 12.7 °C 1030.4 hPa SSW 7.1 km/h 17.7 km/h 79% 0 mm 329 W/m2
13:59 16.3 °C 12.7 °C 1030 hPa SSW 11.7 km/h 17.7 km/h 79% 0 mm 304 W/m2
14:04 16.6 °C 13 °C 1030 hPa South 3.9 km/h 14.5 km/h 79.8% 0 mm 490 W/m2
14:09 16.8 °C 13.2 °C 1030 hPa WSW 8.4 km/h 19.3 km/h 79.4% 0 mm 615 W/m2
14:14 16.9 °C 13.2 °C 1030 hPa West 8.2 km/h 19.3 km/h 79% 0 mm 357 W/m2
14:19 16.8 °C 13.1 °C 1030 hPa WSW 7.2 km/h 17.7 km/h 78.8% 0 mm 432 W/m2
14:24 16.9 °C 13.2 °C 1030 hPa SW 11.3 km/h 17.7 km/h 79% 0 mm 334 W/m2
14:29 16.8 °C 13.2 °C 1030 hPa SW 10.1 km/h 16.1 km/h 79% 0 mm 269 W/m2
14:34 16.7 °C 13.1 °C 1030 hPa WSW 12.1 km/h 17.7 km/h 79% 0 mm 257 W/m2
14:39 16.6 °C 12.9 °C 1030 hPa SW 10.3 km/h 22.5 km/h 79% 0 mm 308 W/m2
14:44 16.6 °C 13.1 °C 1030 hPa SW 6.4 km/h 16.1 km/h 79.8% 0 mm 294 W/m2
14:49 16.7 °C 13.2 °C 1030 hPa SW 9.8 km/h 17.7 km/h 80% 0 mm 206 W/m2
14:54 16.4 °C 12.9 °C 1030 hPa SSW 10.6 km/h 17.7 km/h 80% 0 mm 230 W/m2
14:59 16.4 °C 12.9 °C 1030 hPa SW 8.4 km/h 17.7 km/h 80% 0 mm 429 W/m2
15:04 16.6 °C 13.1 °C 1030 hPa SW 10.3 km/h 19.3 km/h 80% 0 mm 424 W/m2
15:09 16.4 °C 12.9 °C 1030 hPa SSW 12.2 km/h 16.1 km/h 80% 0 mm 209 W/m2
15:14 16.4 °C 12.9 °C 1030 hPa SW 7.9 km/h 16.1 km/h 80% 0 mm 276 W/m2
15:19 16.4 °C 12.9 °C 1030 hPa SW 7.7 km/h 16.1 km/h 80% 0 mm 251 W/m2
15:24 16.4 °C 12.9 °C 1029.7 hPa WSW 9 km/h 16.1 km/h 80.2% 0 mm 216 W/m2
15:29 16.4 °C 13 °C 1030 hPa SW 7.1 km/h 17.7 km/h 80.4% 0 mm 155 W/m2
15:34 16.4 °C 12.9 °C 1030 hPa SSW 7.1 km/h 16.1 km/h 80% 0 mm 225 W/m2
15:39 16.4 °C 13 °C 1029.7 hPa SSW 7.4 km/h 16.1 km/h 80.4% 0 mm 265 W/m2
15:44 16.4 °C 12.9 °C 1029.7 hPa SSW 7.7 km/h 14.5 km/h 80% 0 mm 338 W/m2
15:49 16.6 °C 13.1 °C 1029.3 hPa South 6.1 km/h 14.5 km/h 80% 0 mm 352 W/m2
15:54 16.7 °C 13.2 °C 1029.3 hPa SW 9.5 km/h 14.5 km/h 80% 0 mm 255 W/m2
15:59 16.9 °C 13.4 °C 1029.3 hPa SW 6.6 km/h 12.9 km/h 80% 0 mm 332 W/m2
16:04 16.9 °C 13.3 °C 1029.3 hPa SW 11.3 km/h 16.1 km/h 79.2% 0 mm 455 W/m2
16:09 17.1 °C 13.3 °C 1029.3 hPa WSW 8.2 km/h 16.1 km/h 79% 0 mm 461 W/m2
16:14 17.3 °C 13.6 °C 1029.3 hPa SW 7.9 km/h 12.9 km/h 79% 0 mm 397 W/m2
16:19 17.2 °C 13.5 °C 1029.3 hPa SW 6.8 km/h 17.7 km/h 79% 0 mm 306 W/m2
16:24 17.1 °C 13.3 °C 1029.3 hPa SW 12.7 km/h 17.7 km/h 79% 0 mm 290 W/m2
16:29 16.8 °C 13.2 °C 1029.3 hPa SW 5.8 km/h 17.7 km/h 79.2% 0 mm 172 W/m2
16:34 16.8 °C 13.3 °C 1029.3 hPa SW 9.8 km/h 16.1 km/h 80% 0 mm 178 W/m2
16:39 16.6 °C 13.1 °C 1029.7 hPa SW 14.8 km/h 20.9 km/h 80% 0 mm 255 W/m2
16:44 16.4 °C 13.1 °C 1029.3 hPa SSW 8 km/h 17.7 km/h 80.6% 0 mm 255 W/m2
16:49 16.7 °C 13.3 °C 1029.3 hPa SW 4.7 km/h 8 km/h 81% 0 mm 139 W/m2
16:54 16.7 °C 13.3 °C 1029.3 hPa WSW 8.7 km/h 14.5 km/h 81% 0 mm 102 W/m2
16:59 16.5 °C 13.2 °C 1029.3 hPa SW 10.6 km/h 19.3 km/h 81% 0 mm 135 W/m2
17:04 16.3 °C 13.2 °C 1029.3 hPa SSW 7.6 km/h 17.7 km/h 81.6% 0 mm 148 W/m2
17:09 16.2 °C 13.1 °C 1029.3 hPa SSW 5.8 km/h 17.7 km/h 82% 0 mm 65 W/m2
17:14 16.2 °C 13.1 °C 1029.3 hPa SSW 9 km/h 17.7 km/h 82% 0 mm 86 W/m2
17:19 15.9 °C 13 °C 1029.3 hPa South 7.1 km/h 17.7 km/h 82.8% 0 mm 132 W/m2
17:24 15.8 °C 12.9 °C 1029.3 hPa SSW 8 km/h 17.7 km/h 83% 0 mm 135 W/m2
17:29 15.7 °C 12.9 °C 1029 hPa SSW 8.4 km/h 17.7 km/h 83.2% 0 mm 197 W/m2
17:34 15.7 °C 13 °C 1029 hPa SSW 9.7 km/h 17.7 km/h 84% 0 mm 155 W/m2
17:39 15.8 °C 13.1 °C 1029 hPa SW 12.9 km/h 24.1 km/h 84% 0 mm 190 W/m2
17:44 15.8 °C 13.2 °C 1029 hPa WSW 11.3 km/h 20.9 km/h 84% 0 mm 178 W/m2
17:49 15.8 °C 12.9 °C 1029.3 hPa SW 11.9 km/h 22.5 km/h 83% 0 mm 278 W/m2
17:54 16.1 °C 13.2 °C 1029.3 hPa SW 7.1 km/h 14.5 km/h 83% 0 mm 225 W/m2
17:59 15.9 °C 13.1 °C 1029.3 hPa SW 12.9 km/h 20.9 km/h 83% 0 mm 107 W/m2
18:04 15.8 °C 12.9 °C 1029.3 hPa SSW 6.4 km/h 16.1 km/h 83% 0 mm 49 W/m2
18:09 15.7 °C 12.8 °C 1029 hPa SW 9 km/h 16.1 km/h 83% 0 mm 139 W/m2
18:14 15.6 °C 12.8 °C 1029 hPa SW 7.2 km/h 12.9 km/h 83.4% 0 mm 193 W/m2
18:19 15.7 °C 13 °C 1029.3 hPa SSW 7.1 km/h 12.9 km/h 84% 0 mm 139 W/m2
18:24 15.8 °C 13.1 °C 1029.3 hPa SW 8.2 km/h 16.1 km/h 83.8% 0 mm 107 W/m2
18:29 15.8 °C 12.9 °C 1029.3 hPa SW 8.4 km/h 16.1 km/h 83% 0 mm 113 W/m2
18:34 15.8 °C 12.9 °C 1029.3 hPa SSW 9.8 km/h 20.9 km/h 83% 0 mm 100 W/m2
18:39 15.7 °C 12.8 °C 1029.3 hPa SW 7.9 km/h 16.1 km/h 83% 0 mm 42 W/m2
18:44 15.7 °C 12.8 °C 1029.3 hPa SW 8 km/h 17.7 km/h 83% 0 mm 90 W/m2
18:49 15.7 °C 12.8 °C 1029.3 hPa SW 10.1 km/h 20.9 km/h 83.4% 0 mm 98 W/m2
18:54 15.6 °C 12.9 °C 1029.3 hPa SSW 8.9 km/h 20.9 km/h 84% 0 mm 74 W/m2
18:59 15.6 °C 12.9 °C 1029.3 hPa SSW 6.6 km/h 14.5 km/h 84% 0 mm 65 W/m2
19:04 15.6 °C 12.9 °C 1029.3 hPa SSW 6.4 km/h 16.1 km/h 84% 0 mm 40 W/m2
19:09 15.4 °C 12.7 °C 1029.3 hPa SSW 8.7 km/h 17.7 km/h 84% 0 mm 23 W/m2
19:14 15.3 °C 12.6 °C 1029.3 hPa SSE 6.6 km/h 14.5 km/h 84% 0 mm 16 W/m2
19:19 15.1 °C 12.4 °C 1029.3 hPa SSE 5.1 km/h 11.3 km/h 84% 0 mm 18 W/m2
19:24 15 °C 12.3 °C 1029.3 hPa South 6 km/h 16.1 km/h 84% 0 mm 32 W/m2
19:29 14.8 °C 12.3 °C 1029.3 hPa South 6.8 km/h 14.5 km/h 84.8% 0 mm 39 W/m2
19:34 14.7 °C 12.2 °C 1029.3 hPa SSW 6.6 km/h 16.1 km/h 85% 0 mm 11 W/m2
19:39 14.7 °C 12.2 °C 1029.3 hPa SSW 7.2 km/h 14.5 km/h 85% 0 mm 7 W/m2
19:44 14.6 °C 12.1 °C 1029.3 hPa SSW 7.7 km/h 14.5 km/h 85% 0 mm 0 W/m2
19:49 14.4 °C 11.9 °C 1029.3 hPa South 6.9 km/h 16.1 km/h 85% 0 mm 0 W/m2
19:54 14.3 °C 11.8 °C 1029.3 hPa SSW 7.7 km/h 11.3 km/h 85% 0 mm 0 W/m2
19:59 14.3 °C 11.8 °C 1029.3 hPa South 4 km/h 11.3 km/h 85% 0 mm 0 W/m2
20:04 14.2 °C 11.8 °C 1029.3 hPa SSW 7.1 km/h 14.5 km/h 85.6% 0 mm 0 W/m2
20:09 14 °C 11.7 °C 1029.3 hPa South 5.1 km/h 14.5 km/h 86% 0 mm 0 W/m2
20:14 13.9 °C 11.6 °C 1029.3 hPa SSW 6.1 km/h 19.3 km/h 86% 0 mm 0 W/m2
20:19 13.8 °C 11.5 °C 1029.3 hPa South 5.1 km/h 14.5 km/h 86% 0 mm 0 W/m2
20:24 13.8 °C 11.4 °C 1029.3 hPa SSW 7.7 km/h 14.5 km/h 86% 0 mm 0 W/m2
20:29 13.6 °C 11.3 °C 1029.3 hPa SSW 7.7 km/h 16.1 km/h 86% 0 mm 0 W/m2
20:34 13.6 °C 11.3 °C 1029.7 hPa SSW 8.4 km/h 17.7 km/h 86% 0 mm 0 W/m2
20:39 13.5 °C 11.3 °C 1029.7 hPa SSW 6.4 km/h 17.7 km/h 86.4% 0 mm 0 W/m2
20:44 13.4 °C 11.3 °C 1029.7 hPa SSW 10.3 km/h 16.1 km/h 87% 0 mm 0 W/m2
20:49 13.3 °C 11.2 °C 1029.7 hPa SSW 6.8 km/h 16.1 km/h 87% 0 mm 0 W/m2
20:54 13.3 °C 11.2 °C 1029.7 hPa South 8.2 km/h 16.1 km/h 87% 0 mm 0 W/m2
20:59 13.3 °C 11.2 °C 1030 hPa South 4 km/h 16.1 km/h 87% 0 mm 0 W/m2
21:04 13.2 °C 11.1 °C 1030 hPa South 8.2 km/h 14.5 km/h 87% 0 mm 0 W/m2
21:09 13.1 °C 11.1 °C 1030 hPa SSW 6.6 km/h 16.1 km/h 87.4% 0 mm 0 W/m2
21:14 13 °C 10.9 °C 1030 hPa SSW 5.8 km/h 16.1 km/h 87.4% 0 mm 0 W/m2
21:19 12.8 °C 10.9 °C 1030 hPa SSW 9 km/h 17.7 km/h 88% 0 mm 0 W/m2
21:24 12.8 °C 10.9 °C 1030.4 hPa SSW 9.5 km/h 20.9 km/h 88% 0 mm 0 W/m2
21:29 12.7 °C 10.8 °C 1030 hPa SSW 11.9 km/h 16.1 km/h 88% 0 mm 0 W/m2
21:34 12.6 °C 10.7 °C 1030 hPa SSW 11.3 km/h 17.7 km/h 88% 0 mm 0 W/m2
21:39 12.5 °C 10.6 °C 1030 hPa SSW 7.6 km/h 12.9 km/h 88% 0 mm 0 W/m2
21:44 12.4 °C 10.6 °C 1030 hPa South 7.6 km/h 16.1 km/h 88.8% 0 mm 0 W/m2
21:49 12.3 °C 10.4 °C 1030 hPa SW 8.4 km/h 14.5 km/h 88.6% 0 mm 0 W/m2
21:54 12.2 °C 10.3 °C 1030 hPa SSW 14.5 km/h 22.5 km/h 89% 0 mm 0 W/m2
21:59 12.1 °C 10.3 °C 1030 hPa South 8.5 km/h 22.5 km/h 89% 0 mm 0 W/m2
22:04 11.9 °C 10.2 °C 1030 hPa South 7.2 km/h 12.9 km/h 89% 0 mm 0 W/m2
22:08 11.9 °C 10.2 °C 1030.4 hPa South 4.3 km/h 11.3 km/h 89% 0 mm 0 W/m2
22:14 11.9 °C 10.1 °C 1030.4 hPa South 7.6 km/h 14.5 km/h 89% 0 mm 0 W/m2
22:19 11.8 °C 10.2 °C 1030.4 hPa South 7.2 km/h 16.1 km/h 89.8% 0 mm 0 W/m2
22:24 11.8 °C 10.2 °C 1030.4 hPa South 6.4 km/h 14.5 km/h 90% 0 mm 0 W/m2
22:29 11.7 °C 10.1 °C 1030 hPa SSW 6.4 km/h 14.5 km/h 90% 0 mm 0 W/m2
22:34 11.7 °C 10.1 °C 1030 hPa SSW 7.2 km/h 16.1 km/h 90% 0 mm 0 W/m2
22:39 11.6 °C 10 °C 1030 hPa SSW 8.7 km/h 19.3 km/h 90% 0 mm 0 W/m2
22:44 11.6 °C 9.9 °C 1030.4 hPa SSW 7.4 km/h 14.5 km/h 90% 0 mm 0 W/m2
22:49 11.6 °C 9.9 °C 1030.4 hPa South 5.6 km/h 19.3 km/h 90% 0 mm 0 W/m2
22:54 11.4 °C 9.9 °C 1030.4 hPa South 6.6 km/h 14.5 km/h 90.2% 0 mm 0 W/m2
22:59 11.4 °C 9.9 °C 1030.4 hPa South 8.9 km/h 12.9 km/h 90.4% 0 mm 0 W/m2
23:04 11.3 °C 9.8 °C 1030.4 hPa South 4.5 km/h 12.9 km/h 90.2% 0 mm 0 W/m2
23:09 11.3 °C 9.9 °C 1030 hPa SSE 7.1 km/h 14.5 km/h 91% 0 mm 0 W/m2
23:14 11.2 °C 9.8 °C 1030 hPa SSW 5.1 km/h 12.9 km/h 91% 0 mm 0 W/m2
23:19 11.2 °C 9.8 °C 1030 hPa SSW 5.8 km/h 11.3 km/h 91% 0 mm 0 W/m2
23:24 11.2 °C 9.8 °C 1030 hPa SSW 5.1 km/h 9.7 km/h 91% 0 mm 0 W/m2
23:29 11.1 °C 9.7 °C 1030 hPa SSW 5.3 km/h 11.3 km/h 91% 0 mm 0 W/m2
23:34 11.1 °C 9.7 °C 1030 hPa SSW 6 km/h 14.5 km/h 91% 0 mm 0 W/m2
23:39 11.1 °C 9.7 °C 1030 hPa SSW 6.3 km/h 12.9 km/h 91% 0 mm 0 W/m2
23:44 11 °C 9.6 °C 1030 hPa SW 9.3 km/h 14.5 km/h 91% 0 mm 0 W/m2
23:49 10.9 °C 9.6 °C 1030 hPa WSW 8 km/h 14.5 km/h 91% 0 mm 0 W/m2
23:54 10.9 °C 9.5 °C 1030 hPa SW 6.4 km/h 14.5 km/h 91% 0 mm 0 W/m2
23:59 10.9 °C 9.5 °C 1030 hPa SSW 10 km/h 16.1 km/h 91% 0 mm 0 W/m2
Bath Spa Weather
Compliments of Weather Underground - 2 mb